Time,TemperatureF,DewpointF,PressureIn,WindDirection,WindDirectionDegrees,WindSpeedMPH,WindSpeedGustMPH,Humidity,HourlyPrecipIn,Conditions,Clouds,dailyrainin,SoftwareType,DateUTC
2013-02-27 00:00:00,33.0,29.3,29.70,West,273,2.0,9.0,86,0.00,,,0.35,VWS V14.01,2013-02-27 06:00:00,
2013-02-27 00:03:00,32.9,29.5,29.70,WSW,257,4.0,7.0,87,0.00,,,0.00,VWS V14.01,2013-02-27 06:03:00,
2013-02-27 00:08:00,32.9,29.5,29.71,West,279,4.0,8.0,87,0.00,,,0.00,VWS V14.01,2013-02-27 06:08:00,
2013-02-27 00:13:00,32.8,29.4,29.71,West,263,7.0,8.0,87,0.00,,,0.00,VWS V14.01,2013-02-27 06:13:00,
2013-02-27 00:18:00,32.6,29.5,29.71,WSW,252,4.0,8.0,88,0.00,,,0.00,VWS V14.01,2013-02-27 06:18:00,
2013-02-27 00:23:00,32.5,29.4,29.71,WSW,256,6.0,10.0,88,0.00,,,0.00,VWS V14.01,2013-02-27 06:23:00,
2013-02-27 00:28:00,32.5,29.6,29.71,WSW,248,2.0,10.0,89,0.00,,,0.00,VWS V14.01,2013-02-27 06:28:00,
2013-02-27 00:30:00,32.5,29.6,29.71,West,268,1.0,10.0,89,0.00,,,0.00,VWS V14.01,2013-02-27 06:30:00,
2013-02-27 00:33:00,32.4,29.5,29.72,WNW,284,1.0,6.0,89,0.00,,,0.00,VWS V14.01,2013-02-27 06:33:00,
2013-02-27 00:38:00,32.4,29.5,29.72,West,269,3.0,8.0,89,0.00,,,0.00,VWS V14.01,2013-02-27 06:38:00,
2013-02-27 00:43:00,32.4,29.5,29.72,WSW,252,2.0,8.0,89,0.00,,,0.00,VWS V14.01,2013-02-27 06:43:00,
2013-02-27 00:48:00,32.4,29.5,29.72,WSW,254,6.0,8.0,89,0.00,,,0.00,VWS V14.01,2013-02-27 06:48:00,
2013-02-27 00:54:00,32.4,29.5,29.72,WNW,283,2.0,8.0,89,0.00,,,0.00,VWS V14.01,2013-02-27 06:54:00,
2013-02-27 00:59:00,32.4,29.5,29.73,SW,223,7.0,8.0,89,0.00,,,0.00,VWS V14.01,2013-02-27 06:59:00,
2013-02-27 01:00:00,32.4,29.5,29.72,WNW,295,4.0,8.0,89,0.00,,,0.00,VWS V14.01,2013-02-27 07:00:00,
2013-02-27 01:04:00,32.4,29.5,29.72,West,265,2.0,6.0,89,0.00,,,0.00,VWS V14.01,2013-02-27 07:04:00,
2013-02-27 01:09:00,32.4,29.5,29.72,West,271,5.0,6.0,89,0.00,,,0.00,VWS V14.01,2013-02-27 07:09:00,
2013-02-27 01:14:00,32.4,29.5,29.73,West,262,2.0,7.0,89,0.00,,,0.00,VWS V14.01,2013-02-27 07:14:00,
2013-02-27 01:19:00,32.4,29.5,29.72,WNW,301,5.0,7.0,89,0.00,,,0.00,VWS V14.01,2013-02-27 07:19:00,
2013-02-27 01:24:00,32.4,29.5,29.72,West,266,1.0,7.0,89,0.00,,,0.00,VWS V14.01,2013-02-27 07:24:00,
2013-02-27 01:29:00,32.5,29.6,29.72,West,270,2.0,7.0,89,0.00,,,0.00,VWS V14.01,2013-02-27 07:29:00,
2013-02-27 01:30:00,32.4,29.5,29.72,WSW,256,1.0,7.0,89,0.00,,,0.00,VWS V14.01,2013-02-27 07:30:00,
2013-02-27 01:34:00,32.5,29.6,29.72,WSW,252,3.0,4.0,89,0.00,,,0.00,VWS V14.01,2013-02-27 07:34:00,
2013-02-27 01:39:00,32.5,29.6,29.72,West,261,4.0,7.0,89,0.00,,,0.00,VWS V14.01,2013-02-27 07:39:00,
2013-02-27 01:44:00,32.5,29.6,29.72,WSW,244,4.0,7.0,89,0.00,,,0.00,VWS V14.01,2013-02-27 07:44:00,
2013-02-27 01:49:00,32.5,29.6,29.72,West,272,5.0,8.0,89,0.00,,,0.00,VWS V14.01,2013-02-27 07:49:00,
2013-02-27 01:54:00,32.5,29.6,29.72,WSW,246,3.0,8.0,89,0.00,,,0.00,VWS V14.01,2013-02-27 07:54:00,
2013-02-27 01:59:00,32.5,29.6,29.72,West,260,2.0,8.0,89,0.00,,,0.00,VWS V14.01,2013-02-27 07:59:00,
2013-02-27 02:00:00,32.5,29.6,29.72,WSW,255,5.0,8.0,89,0.00,,,0.00,VWS V14.01,2013-02-27 08:00:00,
2013-02-27 02:04:00,32.5,29.6,29.71,West,259,5.0,6.0,89,0.00,,,0.00,VWS V14.01,2013-02-27 08:04:00,
2013-02-27 02:09:00,32.5,29.6,29.71,WSW,252,3.0,7.0,89,0.00,,,0.00,VWS V14.01,2013-02-27 08:09:00,
2013-02-27 02:14:00,32.5,29.6,29.71,West,273,5.0,7.0,89,0.00,,,0.00,VWS V14.01,2013-02-27 08:14:00,
2013-02-27 02:19:00,32.5,29.6,29.71,West,272,4.0,7.0,89,0.00,,,0.00,VWS V14.01,2013-02-27 08:19:00,
2013-02-27 02:24:00,32.5,29.6,29.71,West,280,13.0,13.0,89,0.00,,,0.00,VWS V14.01,2013-02-27 08:24:00,
2013-02-27 02:29:00,32.6,29.7,29.71,SW,233,3.0,13.0,89,0.00,,,0.00,VWS V14.01,2013-02-27 08:29:00,
2013-02-27 02:30:00,32.6,29.7,29.71,SW,223,6.0,13.0,89,0.00,,,0.00,VWS V14.01,2013-02-27 08:30:00,
2013-02-27 02:34:00,32.6,29.7,29.71,SSW,207,7.0,10.0,89,0.00,,,0.00,VWS V14.01,2013-02-27 08:34:00,
2013-02-27 02:39:00,32.6,29.7,29.71,West,277,4.0,11.0,89,0.00,,,0.00,VWS V14.01,2013-02-27 08:39:00,
2013-02-27 02:44:00,32.6,29.7,29.71,WNW,292,6.0,11.0,89,0.00,,,0.00,VWS V14.01,2013-02-27 08:44:00,
2013-02-27 02:49:00,32.6,29.7,29.71,WNW,300,4.0,11.0,89,0.00,,,0.00,VWS V14.01,2013-02-27 08:49:00,
2013-02-27 02:54:00,32.6,29.7,29.71,WNW,298,1.0,11.0,89,0.00,,,0.00,VWS V14.01,2013-02-27 08:54:00,
2013-02-27 02:59:00,32.6,29.7,29.71,WNW,298,6.0,11.0,89,0.00,,,0.00,VWS V14.01,2013-02-27 08:59:00,
2013-02-27 03:00:00,32.6,29.7,29.71,WNW,290,2.0,11.0,89,0.00,,,0.00,VWS V14.01,2013-02-27 09:00:00,
2013-02-27 03:04:00,32.6,29.7,29.71,WNW,288,4.0,8.0,89,0.00,,,0.00,VWS V14.01,2013-02-27 09:04:00,
2013-02-27 03:09:00,32.6,29.7,29.71,WNW,286,6.0,10.0,89,0.00,,,0.00,VWS V14.01,2013-02-27 09:09:00,
2013-02-27 03:14:00,32.6,29.7,29.71,WSW,238,3.0,11.0,89,0.00,,,0.00,VWS V14.01,2013-02-27 09:14:00,
2013-02-27 03:19:00,32.5,29.6,29.71,SW,232,1.0,11.0,89,0.00,,,0.00,VWS V14.01,2013-02-27 09:19:00,
2013-02-27 03:24:00,32.5,29.9,29.71,West,260,1.0,11.0,90,0.00,,,0.00,VWS V14.01,2013-02-27 09:24:00,
2013-02-27 03:29:00,32.5,29.9,29.71,WSW,244,3.0,11.0,90,0.00,,,0.00,VWS V14.01,2013-02-27 09:29:00,
2013-02-27 03:30:00,32.5,29.9,29.71,WSW,248,6.0,11.0,90,0.00,,,0.00,VWS V14.01,2013-02-27 09:30:00,
2013-02-27 03:34:00,32.4,29.8,29.71,WSW,252,5.0,7.0,90,0.00,,,0.00,VWS V14.01,2013-02-27 09:34:00,
2013-02-27 03:39:00,32.5,29.9,29.71,SW,235,2.0,8.0,90,0.00,,,0.00,VWS V14.01,2013-02-27 09:39:00,
2013-02-27 03:44:00,32.5,29.9,29.71,WSW,256,4.0,13.0,90,0.00,,,0.00,VWS V14.01,2013-02-27 09:44:00,
2013-02-27 03:49:00,32.5,29.9,29.71,WSW,254,3.0,13.0,90,0.00,,,0.00,VWS V14.01,2013-02-27 09:49:00,
2013-02-27 03:54:00,32.5,29.9,29.72,SW,223,7.0,14.0,90,0.00,,,0.00,VWS V14.01,2013-02-27 09:54:00,
2013-02-27 03:59:00,32.5,29.9,29.72,WSW,250,1.0,14.0,90,0.00,,,0.00,VWS V14.01,2013-02-27 09:59:00,
2013-02-27 04:00:00,32.5,29.9,29.72,WSW,251,1.0,14.0,90,0.00,,,0.00,VWS V14.01,2013-02-27 10:00:00,
2013-02-27 04:04:00,32.5,30.2,29.72,WSW,241,2.0,4.0,91,0.00,,,0.00,VWS V14.01,2013-02-27 10:04:00,
2013-02-27 04:09:00,32.5,30.2,29.72,WSW,255,2.0,6.0,91,0.00,,,0.00,VWS V14.01,2013-02-27 10:09:00,
2013-02-27 04:14:00,32.5,30.2,29.73,West,279,4.0,6.0,91,0.00,,,0.00,VWS V14.01,2013-02-27 10:14:00,
2013-02-27 04:19:00,32.6,30.3,29.73,West,278,2.0,8.0,91,0.00,,,0.00,VWS V14.01,2013-02-27 10:19:00,
2013-02-27 04:24:00,32.6,30.3,29.73,West,281,2.0,8.0,91,0.00,,,0.00,VWS V14.01,2013-02-27 10:24:00,
2013-02-27 04:29:00,32.6,30.3,29.73,South,186,3.0,8.0,91,0.00,,,0.00,VWS V14.01,2013-02-27 10:29:00,
2013-02-27 04:30:00,32.6,30.3,29.73,WSW,244,3.0,8.0,91,0.00,,,0.00,VWS V14.01,2013-02-27 10:30:00,
2013-02-27 04:34:00,32.6,30.3,29.73,WNW,284,1.0,7.0,91,0.00,,,0.00,VWS V14.01,2013-02-27 10:34:00,
2013-02-27 04:39:00,32.6,30.3,29.73,West,275,2.0,7.0,91,0.00,,,0.00,VWS V14.01,2013-02-27 10:39:00,
2013-02-27 04:44:00,32.6,30.3,29.73,WSW,252,3.0,7.0,91,0.00,,,0.00,VWS V14.01,2013-02-27 10:44:00,
2013-02-27 04:49:00,32.6,30.3,29.73,West,261,4.0,7.0,91,0.00,,,0.00,VWS V14.01,2013-02-27 10:49:00,
2013-02-27 04:54:00,32.5,30.2,29.73,West,269,4.0,7.0,91,0.00,,,0.00,VWS V14.01,2013-02-27 10:54:00,
2013-02-27 04:59:00,32.6,30.3,29.73,WSW,244,0.0,7.0,91,0.00,,,0.00,VWS V14.01,2013-02-27 10:59:00,
2013-02-27 05:00:00,32.6,30.3,29.73,NW,306,6.0,7.0,91,0.00,,,0.00,VWS V14.01,2013-02-27 11:00:00,
2013-02-27 05:04:00,32.6,30.3,29.74,West,279,4.0,8.0,91,0.00,,,0.00,VWS V14.01,2013-02-27 11:04:00,
2013-02-27 05:09:00,32.5,30.2,29.74,WNW,300,4.0,8.0,91,0.00,,,0.00,VWS V14.01,2013-02-27 11:09:00,
2013-02-27 05:14:00,32.5,30.2,29.74,West,273,1.0,8.0,91,0.00,,,0.00,VWS V14.01,2013-02-27 11:14:00,
2013-02-27 05:19:00,32.5,30.2,29.74,SSW,212,3.0,8.0,91,0.00,,,0.00,VWS V14.01,2013-02-27 11:19:00,
2013-02-27 05:24:00,32.5,30.2,29.74,WSW,250,4.0,8.0,91,0.00,,,0.00,VWS V14.01,2013-02-27 11:24:00,
2013-02-27 05:29:00,32.5,30.2,29.74,WSW,252,5.0,8.0,91,0.00,,,0.00,VWS V14.01,2013-02-27 11:29:00,
2013-02-27 05:30:00,32.5,30.2,29.74,WSW,250,5.0,8.0,91,0.00,,,0.00,VWS V14.01,2013-02-27 11:30:00,
2013-02-27 05:34:00,32.5,30.2,29.74,WSW,254,3.0,7.0,91,0.00,,,0.00,VWS V14.01,2013-02-27 11:34:00,
2013-02-27 05:39:00,32.4,30.1,29.74,WSW,256,2.0,7.0,91,0.00,,,0.00,VWS V14.01,2013-02-27 11:39:00,
2013-02-27 05:44:00,32.4,30.1,29.74,West,259,3.0,7.0,91,0.00,,,0.00,VWS V14.01,2013-02-27 11:44:00,
2013-02-27 05:49:00,32.4,30.1,29.74,WNW,284,5.0,8.0,91,0.00,,,0.00,VWS V14.01,2013-02-27 11:49:00,
2013-02-27 05:54:00,32.4,30.1,29.75,WSW,241,4.0,8.0,91,0.00,,,0.00,VWS V14.01,2013-02-27 11:54:00,
2013-02-27 05:59:00,32.4,30.1,29.74,West,274,2.0,8.0,91,0.00,,,0.00,VWS V14.01,2013-02-27 11:59:00,
2013-02-27 06:00:00,32.3,30.0,29.74,West,273,2.0,8.0,91,0.00,,,0.00,VWS V14.01,2013-02-27 12:00:00,
2013-02-27 06:04:00,32.3,30.0,29.75,West,261,0.0,6.0,91,0.00,,,0.00,VWS V14.01,2013-02-27 12:04:00,
2013-02-27 06:09:00,32.3,30.0,29.75,West,261,1.0,6.0,91,0.00,,,0.00,VWS V14.01,2013-02-27 12:09:00,
2013-02-27 06:14:00,32.3,30.0,29.75,WSW,257,1.0,6.0,91,0.00,,,0.00,VWS V14.01,2013-02-27 12:14:00,
2013-02-27 06:19:00,32.3,30.0,29.75,WSW,257,1.0,6.0,91,0.00,,,0.00,VWS V14.01,2013-02-27 12:19:00,
2013-02-27 06:24:00,32.3,30.0,29.75,WSW,252,1.0,6.0,91,0.00,,,0.00,VWS V14.01,2013-02-27 12:24:00,
2013-02-27 06:29:00,32.4,30.1,29.75,West,278,4.0,7.0,91,0.00,,,0.00,VWS V14.01,2013-02-27 12:29:00,
2013-02-27 06:30:00,32.4,30.1,29.75,WSW,257,1.0,7.0,91,0.00,,,0.00,VWS V14.01,2013-02-27 12:30:00,
2013-02-27 06:34:00,32.4,30.1,29.75,West,261,3.0,6.0,91,0.00,,,0.00,VWS V14.01,2013-02-27 12:34:00,
2013-02-27 06:39:00,32.4,30.1,29.75,West,259,3.0,8.0,91,0.00,,,0.00,VWS V14.01,2013-02-27 12:39:00,
2013-02-27 06:44:00,32.4,30.1,29.75,WSW,249,4.0,8.0,91,0.00,,,0.00,VWS V14.01,2013-02-27 12:44:00,
2013-02-27 06:49:00,32.4,30.1,29.75,SW,236,2.0,8.0,91,0.00,,,0.00,VWS V14.01,2013-02-27 12:49:00,
2013-02-27 06:54:00,32.4,30.1,29.75,West,276,2.0,8.0,91,0.00,,,0.00,VWS V14.01,2013-02-27 12:54:00,
2013-02-27 06:59:00,32.3,30.0,29.76,West,260,4.0,11.0,91,0.00,,,0.00,VWS V14.01,2013-02-27 12:59:00,
2013-02-27 07:00:00,32.3,30.0,29.76,West,265,3.0,11.0,91,0.00,,,0.00,VWS V14.01,2013-02-27 13:00:00,
2013-02-27 07:04:00,32.3,30.0,29.76,West,259,3.0,8.0,91,0.00,,,0.00,VWS V14.01,2013-02-27 13:04:00,
2013-02-27 07:09:00,32.3,30.0,29.76,WSW,258,6.0,8.0,91,0.00,,,0.00,VWS V14.01,2013-02-27 13:09:00,
2013-02-27 07:14:00,32.3,30.0,29.76,WSW,257,3.0,8.0,91,0.00,,,0.00,VWS V14.01,2013-02-27 13:14:00,
2013-02-27 07:19:00,32.4,30.1,29.76,West,271,4.0,8.0,91,0.00,,,0.00,VWS V14.01,2013-02-27 13:19:00,
2013-02-27 07:24:00,32.4,30.1,29.77,West,269,3.0,8.0,91,0.00,,,0.00,VWS V14.01,2013-02-27 13:24:00,
2013-02-27 07:30:00,32.4,30.1,29.77,West,272,6.0,8.0,91,0.00,,,0.00,VWS V14.01,2013-02-27 13:30:00,
2013-02-27 07:35:00,32.4,30.3,29.77,West,275,2.0,6.0,92,0.00,,,0.00,VWS V14.01,2013-02-27 13:35:00,
2013-02-27 07:40:00,32.4,30.1,29.77,West,278,8.0,12.0,91,0.00,,,0.00,VWS V14.01,2013-02-27 13:40:00,
2013-02-27 07:45:00,32.4,30.1,29.77,WNW,299,4.0,12.0,91,0.00,,,0.00,VWS V14.01,2013-02-27 13:45:00,
2013-02-27 07:50:00,32.4,30.1,29.77,West,275,4.0,14.0,91,0.00,,,0.00,VWS V14.01,2013-02-27 13:50:00,
2013-02-27 07:55:00,32.4,30.1,29.78,West,261,4.0,14.0,91,0.00,,,0.00,VWS V14.01,2013-02-27 13:55:00,
2013-02-27 08:00:00,32.4,30.1,29.78,West,262,2.0,14.0,91,0.00,,,0.00,VWS V14.01,2013-02-27 14:00:00,
2013-02-27 08:05:00,32.4,30.1,29.78,West,263,2.0,5.0,91,0.00,,,0.00,VWS V14.01,2013-02-27 14:05:00,
2013-02-27 08:10:00,32.5,30.2,29.78,West,265,2.0,7.0,91,0.00,,,0.00,VWS V14.01,2013-02-27 14:10:00,
2013-02-27 08:15:00,32.5,30.4,29.78,West,277,4.0,7.0,92,0.00,,,0.00,VWS V14.01,2013-02-27 14:15:00,
2013-02-27 08:20:00,32.6,30.5,29.78,WSW,241,2.0,7.0,92,0.00,,,0.00,VWS V14.01,2013-02-27 14:20:00,
2013-02-27 08:25:00,32.6,30.5,29.78,West,280,4.0,7.0,92,0.00,,,0.00,VWS V14.01,2013-02-27 14:25:00,
2013-02-27 08:30:00,32.7,30.6,29.78,WNW,289,9.0,11.0,92,0.00,,,0.00,VWS V14.01,2013-02-27 14:30:00,
2013-02-27 08:35:00,32.7,30.4,29.78,WSW,239,6.0,11.0,91,0.00,,,0.00,VWS V14.01,2013-02-27 14:35:00,
2013-02-27 08:40:00,32.7,30.4,29.78,West,273,9.0,11.0,91,0.00,,,0.00,VWS V14.01,2013-02-27 14:40:00,
2013-02-27 08:45:00,32.7,30.4,29.78,WSW,251,7.0,11.0,91,0.00,,,0.00,VWS V14.01,2013-02-27 14:45:00,
2013-02-27 08:50:00,32.7,30.4,29.78,WSW,258,6.0,11.0,91,0.00,,,0.00,VWS V14.01,2013-02-27 14:50:00,
2013-02-27 08:55:00,32.7,30.4,29.79,WSW,257,5.0,12.0,91,0.00,,,0.00,VWS V14.01,2013-02-27 14:55:00,
2013-02-27 09:00:00,32.7,30.4,29.78,WSW,250,4.0,12.0,91,0.00,,,0.00,VWS V14.01,2013-02-27 15:00:00,
2013-02-27 09:05:00,32.7,30.4,29.79,West,264,3.0,12.0,91,0.00,,,0.00,VWS V14.01,2013-02-27 15:05:00,
2013-02-27 09:10:00,32.7,30.4,29.79,West,273,6.0,12.0,91,0.00,,,0.00,VWS V14.01,2013-02-27 15:10:00,
2013-02-27 09:15:00,32.7,30.4,29.79,WNW,296,6.0,12.0,91,0.00,,,0.00,VWS V14.01,2013-02-27 15:15:00,
2013-02-27 09:20:00,32.6,30.3,29.79,WSW,238,3.0,12.0,91,0.00,,,0.00,VWS V14.01,2013-02-27 15:20:00,
2013-02-27 09:25:00,32.6,30.3,29.79,WSW,247,5.0,12.0,91,0.00,,,0.00,VWS V14.01,2013-02-27 15:25:00,
2013-02-27 09:30:00,32.6,30.3,29.79,NW,309,5.0,12.0,91,0.00,,,0.00,VWS V14.01,2013-02-27 15:30:00,
2013-02-27 09:35:00,32.6,30.3,29.79,WSW,253,5.0,10.0,91,0.00,,,0.00,VWS V14.01,2013-02-27 15:35:00,
2013-02-27 09:40:00,32.6,30.3,29.79,WSW,258,2.0,10.0,91,0.00,,,0.00,VWS V14.01,2013-02-27 15:40:00,
2013-02-27 09:45:00,32.7,30.4,29.79,West,275,6.0,10.0,91,0.00,,,0.00,VWS V14.01,2013-02-27 15:45:00,
2013-02-27 09:50:00,32.8,30.5,29.79,West,267,4.0,10.0,91,0.00,,,0.00,VWS V14.01,2013-02-27 15:50:00,
2013-02-27 09:55:00,32.8,30.5,29.79,West,279,5.0,11.0,91,0.01,,,0.01,VWS V14.01,2013-02-27 15:55:00,
2013-02-27 10:00:00,32.9,30.6,29.79,WSW,252,6.0,11.0,91,0.01,,,0.01,VWS V14.01,2013-02-27 16:00:00,
2013-02-27 10:05:00,32.9,30.6,29.79,West,261,6.0,13.0,91,0.01,,,0.01,VWS V14.01,2013-02-27 16:05:00,
2013-02-27 10:10:00,33.0,30.7,29.79,West,259,7.0,13.0,91,0.01,,,0.01,VWS V14.01,2013-02-27 16:10:00,
2013-02-27 10:15:00,32.9,30.6,29.79,West,279,6.0,16.0,91,0.01,,,0.01,VWS V14.01,2013-02-27 16:15:00,
2013-02-27 10:20:00,33.0,30.7,29.79,West,277,5.0,16.0,91,0.01,,,0.01,VWS V14.01,2013-02-27 16:20:00,
2013-02-27 10:25:00,33.2,30.9,29.79,West,259,7.0,16.0,91,0.01,,,0.01,VWS V14.01,2013-02-27 16:25:00,
2013-02-27 10:30:00,33.3,30.7,29.79,West,270,5.0,6.0,90,0.01,,,0.01,VWS V14.01,2013-02-27 16:30:00,
2013-02-27 10:35:00,33.3,30.7,29.79,West,273,6.0,13.0,90,0.01,,,0.01,VWS V14.01,2013-02-27 16:35:00,
2013-02-27 10:40:00,33.3,30.7,29.79,WNW,298,8.0,13.0,90,0.02,,,0.02,VWS V14.01,2013-02-27 16:40:00,
2013-02-27 10:45:00,33.3,30.4,29.79,West,267,13.0,13.0,89,0.02,,,0.02,VWS V14.01,2013-02-27 16:45:00,
2013-02-27 10:50:00,33.2,30.3,29.80,West,279,7.0,15.0,89,0.02,,,0.02,VWS V14.01,2013-02-27 16:50:00,
2013-02-27 10:55:00,33.2,30.3,29.80,West,276,11.0,15.0,89,0.03,,,0.03,VWS V14.01,2013-02-27 16:55:00,
2013-02-27 11:00:00,33.2,30.3,29.80,West,265,5.0,11.0,89,0.02,,,0.03,VWS V14.01,2013-02-27 17:00:00,
2013-02-27 11:05:00,33.2,30.3,29.80,WSW,256,4.0,15.0,89,0.02,,,0.03,VWS V14.01,2013-02-27 17:05:00,
2013-02-27 11:10:00,33.2,30.3,29.80,West,270,7.0,15.0,89,0.02,,,0.03,VWS V14.01,2013-02-27 17:10:00,
2013-02-27 11:15:00,33.3,30.4,29.80,WNW,288,11.0,15.0,89,0.03,,,0.04,VWS V14.01,2013-02-27 17:15:00,
2013-02-27 11:20:00,33.4,30.5,29.80,WNW,290,13.0,18.0,89,0.03,,,0.04,VWS V14.01,2013-02-27 17:20:00,
2013-02-27 11:25:00,33.4,30.5,29.80,West,280,6.0,18.0,89,0.04,,,0.05,VWS V14.01,2013-02-27 17:25:00,
2013-02-27 11:30:00,33.4,30.2,29.80,WSW,248,6.0,9.0,88,0.04,,,0.05,VWS V14.01,2013-02-27 17:30:00,
2013-02-27 11:35:00,33.4,30.2,29.80,West,270,7.0,20.0,88,0.04,,,0.05,VWS V14.01,2013-02-27 17:35:00,
2013-02-27 11:40:00,33.4,30.2,29.80,West,259,11.0,20.0,88,0.04,,,0.05,VWS V14.01,2013-02-27 17:40:00,
2013-02-27 11:45:00,33.5,30.3,29.80,WSW,251,11.0,20.0,88,0.05,,,0.06,VWS V14.01,2013-02-27 17:45:00,
2013-02-27 11:50:00,33.6,30.4,29.80,WSW,258,10.0,20.0,88,0.06,,,0.07,VWS V14.01,2013-02-27 17:50:00,
2013-02-27 11:55:00,33.7,30.2,29.80,WSW,257,5.0,20.0,87,0.06,,,0.07,VWS V14.01,2013-02-27 17:55:00,
2013-02-27 12:00:00,33.8,30.4,29.80,WSW,257,6.0,7.0,87,0.04,,,0.07,VWS V14.01,2013-02-27 18:00:00,
2013-02-27 12:05:00,33.9,30.2,29.80,NW,309,8.0,16.0,86,0.05,,,0.08,VWS V14.01,2013-02-27 18:05:00,
2013-02-27 12:10:00,34.1,30.1,29.80,NW,311,12.0,18.0,85,0.06,,,0.09,VWS V14.01,2013-02-27 18:10:00,
2013-02-27 12:15:00,34.3,30.0,29.80,WSW,245,11.0,20.0,84,0.06,,,0.09,VWS V14.01,2013-02-27 18:15:00,
2013-02-27 12:20:00,34.5,30.2,29.80,WNW,284,7.0,20.0,84,0.07,,,0.10,VWS V14.01,2013-02-27 18:20:00,
2013-02-27 12:25:00,34.8,30.2,29.80,West,261,10.0,20.0,83,0.08,,,0.11,VWS V14.01,2013-02-27 18:25:00,
2013-02-27 12:30:00,34.9,30.0,29.80,West,269,5.0,8.0,82,0.06,,,0.11,VWS V14.01,2013-02-27 18:30:00,
2013-02-27 12:35:00,34.8,29.9,29.80,SW,221,7.0,19.0,82,0.07,,,0.12,VWS V14.01,2013-02-27 18:35:00,
2013-02-27 12:40:00,34.6,29.7,29.80,West,263,11.0,19.0,82,0.08,,,0.13,VWS V14.01,2013-02-27 18:40:00,
2013-02-27 12:45:00,34.5,29.6,29.80,WSW,250,6.0,19.0,82,0.08,,,0.13,VWS V14.01,2013-02-27 18:45:00,
2013-02-27 12:50:00,34.3,29.4,29.80,SW,236,7.0,20.0,82,0.08,,,0.13,VWS V14.01,2013-02-27 18:50:00,
2013-02-27 12:55:00,34.3,29.4,29.80,West,281,9.0,20.0,82,0.08,,,0.13,VWS V14.01,2013-02-27 18:55:00,
2013-02-27 13:00:00,34.3,29.4,29.80,West,259,12.0,12.0,82,0.07,,,0.14,VWS V14.01,2013-02-27 19:00:00,
2013-02-27 13:05:00,34.2,29.3,29.79,West,279,12.0,17.0,82,0.07,,,0.14,VWS V14.01,2013-02-27 19:05:00,
2013-02-27 13:10:00,34.3,29.7,29.80,WSW,254,7.0,17.0,83,0.07,,,0.14,VWS V14.01,2013-02-27 19:10:00,
2013-02-27 13:15:00,34.4,29.5,29.80,WNW,284,4.0,17.0,82,0.08,,,0.15,VWS V14.01,2013-02-27 19:15:00,
2013-02-27 13:21:00,34.5,29.6,29.80,West,272,14.0,17.0,82,0.08,,,0.15,VWS V14.01,2013-02-27 19:21:00,
2013-02-27 13:26:00,34.4,29.5,29.80,West,279,9.0,18.0,82,0.08,,,0.15,VWS V14.01,2013-02-27 19:26:00,
2013-02-27 13:30:00,34.4,29.5,29.80,SW,229,6.0,18.0,82,0.08,,,0.15,VWS V14.01,2013-02-27 19:30:00,
2013-02-27 13:31:00,34.4,29.5,29.80,SW,234,11.0,12.0,82,0.04,,,0.15,VWS V14.01,2013-02-27 19:31:00,
2013-02-27 13:36:00,34.4,29.5,29.80,West,276,12.0,14.0,82,0.05,,,0.16,VWS V14.01,2013-02-27 19:36:00,
2013-02-27 13:41:00,34.4,29.5,29.80,WSW,257,14.0,15.0,82,0.05,,,0.16,VWS V14.01,2013-02-27 19:41:00,
2013-02-27 13:46:00,34.3,29.4,29.80,West,267,11.0,17.0,82,0.05,,,0.16,VWS V14.01,2013-02-27 19:46:00,
2013-02-27 13:51:00,34.2,29.6,29.80,WSW,253,6.0,18.0,83,0.06,,,0.17,VWS V14.01,2013-02-27 19:51:00,
2013-02-27 13:56:00,34.1,29.5,29.80,WSW,257,5.0,18.0,83,0.06,,,0.17,VWS V14.01,2013-02-27 19:56:00,
2013-02-27 14:00:00,34.1,29.8,29.81,West,275,4.0,18.0,84,0.06,,,0.17,VWS V14.01,2013-02-27 20:00:00,
2013-02-27 14:01:00,34.1,29.8,29.81,West,268,5.0,5.0,84,0.03,,,0.17,VWS V14.01,2013-02-27 20:01:00,
2013-02-27 14:06:00,34.1,29.8,29.81,West,277,6.0,14.0,84,0.03,,,0.17,VWS V14.01,2013-02-27 20:06:00,
2013-02-27 14:11:00,33.9,29.6,29.81,WSW,250,7.0,15.0,84,0.03,,,0.17,VWS V14.01,2013-02-27 20:11:00,
2013-02-27 14:16:00,33.8,29.5,29.81,West,280,5.0,15.0,84,0.03,,,0.17,VWS V14.01,2013-02-27 20:16:00,
2013-02-27 14:21:00,33.8,29.5,29.82,West,260,8.0,18.0,84,0.03,,,0.17,VWS V14.01,2013-02-27 20:21:00,
2013-02-27 14:26:00,33.7,29.4,29.82,NW,314,8.0,18.0,84,0.04,,,0.18,VWS V14.01,2013-02-27 20:26:00,
2013-02-27 14:30:00,33.7,29.4,29.82,West,278,13.0,18.0,84,0.04,,,0.18,VWS V14.01,2013-02-27 20:30:00,
2013-02-27 14:31:00,33.7,29.4,29.82,West,273,9.0,14.0,84,0.03,,,0.18,VWS V14.01,2013-02-27 20:31:00,
2013-02-27 14:36:00,33.7,29.4,29.82,West,278,5.0,14.0,84,0.03,,,0.18,VWS V14.01,2013-02-27 20:36:00,
2013-02-27 14:41:00,33.7,29.7,29.82,West,264,6.0,14.0,85,0.03,,,0.18,VWS V14.01,2013-02-27 20:41:00,
2013-02-27 14:46:00,33.6,29.6,29.83,WNW,288,14.0,15.0,85,0.04,,,0.19,VWS V14.01,2013-02-27 20:46:00,
2013-02-27 14:51:00,33.5,29.5,29.83,NW,306,11.0,15.0,85,0.04,,,0.19,VWS V14.01,2013-02-27 20:51:00,
2013-02-27 14:56:00,33.3,29.3,29.83,WSW,249,12.0,19.0,85,0.04,,,0.19,VWS V14.01,2013-02-27 20:56:00,
2013-02-27 15:00:00,33.2,29.2,29.83,West,276,11.0,19.0,85,0.04,,,0.19,VWS V14.01,2013-02-27 21:00:00,
2013-02-27 15:01:00,33.2,29.2,29.83,West,266,4.0,13.0,85,0.02,,,0.19,VWS V14.01,2013-02-27 21:01:00,
2013-02-27 15:06:00,33.2,29.2,29.83,SW,225,4.0,13.0,85,0.02,,,0.19,VWS V14.01,2013-02-27 21:06:00,
2013-02-27 15:11:00,33.1,29.4,29.83,West,273,7.0,13.0,86,0.02,,,0.19,VWS V14.01,2013-02-27 21:11:00,
2013-02-27 15:16:00,32.9,29.2,29.83,West,259,4.0,14.0,86,0.02,,,0.19,VWS V14.01,2013-02-27 21:16:00,
2013-02-27 15:21:00,32.8,29.1,29.84,WNW,294,15.0,15.0,86,0.02,,,0.19,VWS V14.01,2013-02-27 21:21:00,
2013-02-27 15:26:00,32.7,29.0,29.84,WSW,250,12.0,15.0,86,0.02,,,0.19,VWS V14.01,2013-02-27 21:26:00,
2013-02-27 15:30:00,32.6,28.9,29.84,West,259,6.0,15.0,86,0.02,,,0.19,VWS V14.01,2013-02-27 21:30:00,
2013-02-27 15:31:00,32.6,28.9,29.84,WNW,285,7.0,16.0,86,0.01,,,0.19,VWS V14.01,2013-02-27 21:31:00,
2013-02-27 15:36:00,32.6,29.2,29.84,NW,311,6.0,16.0,87,0.01,,,0.19,VWS V14.01,2013-02-27 21:36:00,
2013-02-27 15:41:00,32.6,29.2,29.84,West,267,4.0,16.0,87,0.01,,,0.19,VWS V14.01,2013-02-27 21:41:00,
2013-02-27 15:46:00,32.5,28.8,29.85,West,260,5.0,16.0,86,0.01,,,0.19,VWS V14.01,2013-02-27 21:46:00,
2013-02-27 15:51:00,32.5,28.8,29.84,West,273,7.0,16.0,86,0.01,,,0.19,VWS V14.01,2013-02-27 21:51:00,
2013-02-27 15:56:00,32.5,28.8,29.85,West,265,1.0,16.0,86,0.01,,,0.20,VWS V14.01,2013-02-27 21:56:00,
2013-02-27 16:00:00,32.5,28.8,29.85,SW,233,8.0,16.0,86,0.02,,,0.20,VWS V14.01,2013-02-27 22:00:00,
2013-02-27 16:01:00,32.4,28.7,29.85,WSW,254,2.0,6.0,86,0.01,,,0.20,VWS V14.01,2013-02-27 22:01:00,
2013-02-27 16:06:00,32.5,28.8,29.85,West,269,5.0,12.0,86,0.01,,,0.20,VWS V14.01,2013-02-27 22:06:00,
2013-02-27 16:11:00,32.5,28.8,29.85,WNW,289,8.0,15.0,86,0.01,,,0.20,VWS V14.01,2013-02-27 22:11:00,
2013-02-27 16:16:00,32.5,28.8,29.85,WNW,286,5.0,15.0,86,0.01,,,0.20,VWS V14.01,2013-02-27 22:16:00,
2013-02-27 16:21:00,32.5,28.5,29.85,West,265,7.0,21.0,85,0.01,,,0.20,VWS V14.01,2013-02-27 22:21:00,
2013-02-27 16:26:00,32.6,28.6,29.85,West,265,3.0,21.0,85,0.01,,,0.20,VWS V14.01,2013-02-27 22:26:00,
2013-02-27 16:30:00,32.6,28.6,29.85,West,277,8.0,21.0,85,0.01,,,0.20,VWS V14.01,2013-02-27 22:30:00,
2013-02-27 16:31:00,32.6,28.6,29.85,West,276,5.0,8.0,85,0.01,,,0.20,VWS V14.01,2013-02-27 22:31:00,
2013-02-27 16:36:00,32.6,28.6,29.85,West,277,4.0,12.0,85,0.01,,,0.20,VWS V14.01,2013-02-27 22:36:00,
2013-02-27 16:41:00,32.6,28.6,29.86,WSW,250,6.0,13.0,85,0.01,,,0.20,VWS V14.01,2013-02-27 22:41:00,
2013-02-27 16:46:00,32.7,28.7,29.85,WSW,253,11.0,13.0,85,0.01,,,0.20,VWS V14.01,2013-02-27 22:46:00,
2013-02-27 16:51:00,32.7,28.4,29.85,WNW,284,5.0,14.0,84,0.01,,,0.20,VWS V14.01,2013-02-27 22:51:00,
2013-02-27 16:56:00,32.6,28.3,29.86,West,265,3.0,14.0,84,0.01,,,0.20,VWS V14.01,2013-02-27 22:56:00,
2013-02-27 17:00:00,32.6,28.3,29.86,West,275,6.0,14.0,84,0.01,,,0.20,VWS V14.01,2013-02-27 23:00:00,
2013-02-27 17:01:00,32.5,28.2,29.86,WNW,286,2.0,13.0,84,0.00,,,0.20,VWS V14.01,2013-02-27 23:01:00,
2013-02-27 17:06:00,32.4,28.1,29.86,West,273,5.0,13.0,84,0.00,,,0.20,VWS V14.01,2013-02-27 23:06:00,
2013-02-27 17:11:00,32.3,28.0,29.86,West,277,8.0,13.0,84,0.00,,,0.20,VWS V14.01,2013-02-27 23:11:00,
2013-02-27 17:16:00,32.2,28.2,29.86,West,271,6.0,17.0,85,0.00,,,0.20,VWS V14.01,2013-02-27 23:16:00,
2013-02-27 17:21:00,32.1,28.1,29.86,WSW,258,4.0,17.0,85,0.00,,,0.20,VWS V14.01,2013-02-27 23:21:00,
2013-02-27 17:26:00,32.0,28.3,29.87,SW,227,7.0,17.0,86,0.00,,,0.20,VWS V14.01,2013-02-27 23:26:00,
2013-02-27 17:30:00,32.0,28.3,29.87,WNW,286,5.0,17.0,86,0.00,,,0.20,VWS V14.01,2013-02-27 23:30:00,
2013-02-27 17:31:00,32.0,28.3,29.87,WNW,288,7.0,7.0,86,0.00,,,0.20,VWS V14.01,2013-02-27 23:31:00,
2013-02-27 17:37:00,31.9,28.2,29.87,WSW,243,11.0,11.0,86,0.00,,,0.20,VWS V14.01,2013-02-27 23:37:00,
2013-02-27 17:42:00,31.9,28.2,29.87,WSW,252,5.0,13.0,86,0.00,,,0.20,VWS V14.01,2013-02-27 23:42:00,
2013-02-27 17:47:00,31.8,28.4,29.87,West,273,7.0,13.0,87,0.00,,,0.20,VWS V14.01,2013-02-27 23:47:00,
2013-02-27 17:52:00,31.8,28.4,29.88,West,273,5.0,13.0,87,0.00,,,0.20,VWS V14.01,2013-02-27 23:52:00,
2013-02-27 17:57:00,31.7,28.3,29.88,West,264,7.0,13.0,87,0.00,,,0.20,VWS V14.01,2013-02-27 23:57:00,
2013-02-27 18:00:00,31.7,28.3,29.88,West,261,5.0,13.0,87,0.00,,,0.20,VWS V14.01,2013-02-28 00:00:00,
2013-02-27 18:02:00,31.7,28.3,29.88,WSW,248,6.0,7.0,87,0.00,,,0.20,VWS V14.01,2013-02-28 00:02:00,
2013-02-27 18:07:00,31.7,28.3,29.88,West,265,6.0,11.0,87,0.00,,,0.20,VWS V14.01,2013-02-28 00:07:00,
2013-02-27 18:12:00,31.7,28.3,29.88,West,263,5.0,14.0,87,0.00,,,0.20,VWS V14.01,2013-02-28 00:12:00,
2013-02-27 18:17:00,31.7,28.3,29.89,WSW,238,10.0,14.0,87,0.00,,,0.20,VWS V14.01,2013-02-28 00:17:00,
2013-02-27 18:22:00,31.7,28.3,29.89,WNW,285,7.0,14.0,87,0.00,,,0.20,VWS V14.01,2013-02-28 00:22:00,
2013-02-27 18:27:00,31.7,28.3,29.89,WNW,284,4.0,14.0,87,0.00,,,0.20,VWS V14.01,2013-02-28 00:27:00,
2013-02-27 18:30:00,31.7,28.3,29.89,WSW,251,7.0,14.0,87,0.00,,,0.20,VWS V14.01,2013-02-28 00:30:00,
2013-02-27 18:32:00,31.7,28.3,29.89,West,267,7.0,12.0,87,0.00,,,0.20,VWS V14.01,2013-02-28 00:32:00,
2013-02-27 18:37:00,31.6,28.2,29.89,West,268,6.0,12.0,87,0.00,,,0.20,VWS V14.01,2013-02-28 00:37:00,
2013-02-27 18:42:00,31.6,28.2,29.90,WSW,246,6.0,13.0,87,0.00,,,0.20,VWS V14.01,2013-02-28 00:42:00,
2013-02-27 18:47:00,31.6,28.2,29.90,West,259,5.0,13.0,87,0.00,,,0.20,VWS V14.01,2013-02-28 00:47:00,
2013-02-27 18:52:00,31.6,28.2,29.89,West,269,6.0,13.0,87,0.00,,,0.20,VWS V14.01,2013-02-28 00:52:00,
2013-02-27 18:57:00,31.7,28.0,29.90,West,270,5.0,14.0,86,0.00,,,0.20,VWS V14.01,2013-02-28 00:57:00,
2013-02-27 19:00:00,31.7,28.0,29.90,West,267,3.0,14.0,86,0.00,,,0.20,VWS V14.01,2013-02-28 01:00:00,
2013-02-27 19:02:00,31.7,28.0,29.90,WSW,238,6.0,9.0,86,0.00,,,0.20,VWS V14.01,2013-02-28 01:02:00,
2013-02-27 19:07:00,31.7,28.0,29.90,WSW,238,2.0,11.0,86,0.00,,,0.20,VWS V14.01,2013-02-28 01:07:00,
2013-02-27 19:12:00,31.7,28.3,29.90,WNW,292,9.0,14.0,87,0.00,,,0.20,VWS V14.01,2013-02-28 01:12:00,
2013-02-27 19:17:00,31.7,28.0,29.90,NW,317,7.0,14.0,86,0.00,,,0.20,VWS V14.01,2013-02-28 01:17:00,
2013-02-27 19:22:00,31.7,28.0,29.90,WNW,290,6.0,14.0,86,0.00,,,0.20,VWS V14.01,2013-02-28 01:22:00,
2013-02-27 19:27:00,31.7,28.0,29.90,WSW,250,7.0,14.0,86,0.00,,,0.20,VWS V14.01,2013-02-28 01:27:00,
2013-02-27 19:30:00,31.6,27.9,29.90,WSW,256,3.0,14.0,86,0.00,,,0.20,VWS V14.01,2013-02-28 01:30:00,
2013-02-27 19:32:00,31.6,27.9,29.90,WSW,247,8.0,8.0,86,0.00,,,0.20,VWS V14.01,2013-02-28 01:32:00,
2013-02-27 19:37:00,31.6,27.9,29.90,NW,306,7.0,11.0,86,0.00,,,0.20,VWS V14.01,2013-02-28 01:37:00,
2013-02-27 19:42:00,31.6,28.2,29.90,West,259,5.0,11.0,87,0.00,,,0.20,VWS V14.01,2013-02-28 01:42:00,
2013-02-27 19:47:00,31.5,28.1,29.91,West,265,5.0,13.0,87,0.00,,,0.20,VWS V14.01,2013-02-28 01:47:00,
2013-02-27 19:52:00,31.5,28.1,29.91,WSW,258,2.0,15.0,87,0.00,,,0.20,VWS V14.01,2013-02-28 01:52:00,
2013-02-27 19:57:00,31.4,28.0,29.91,West,263,4.0,15.0,87,0.00,,,0.20,VWS V14.01,2013-02-28 01:57:00,
2013-02-27 20:00:00,31.4,27.7,29.91,West,265,7.0,15.0,86,0.00,,,0.20,VWS V14.01,2013-02-28 02:00:00,
2013-02-27 20:07:00,31.4,27.7,29.91,West,272,4.0,16.0,86,0.00,,,0.20,VWS V14.01,2013-02-28 02:07:00,
2013-02-27 20:12:00,31.4,27.7,29.91,West,263,3.0,16.0,86,0.00,,,0.20,VWS V14.01,2013-02-28 02:12:00,
2013-02-27 20:17:00,31.3,27.6,29.91,West,261,3.0,16.0,86,0.00,,,0.20,VWS V14.01,2013-02-28 02:17:00,
2013-02-27 20:22:00,31.4,27.7,29.91,West,278,5.0,16.0,86,0.00,,,0.20,VWS V14.01,2013-02-28 02:22:00,
2013-02-27 20:27:00,31.4,27.7,29.91,West,263,3.0,16.0,86,0.00,,,0.20,VWS V14.01,2013-02-28 02:27:00,
2013-02-27 20:30:00,31.4,27.7,29.91,SW,234,10.0,16.0,86,0.00,,,0.20,VWS V14.01,2013-02-28 02:30:00,
2013-02-27 20:32:00,31.3,27.6,29.91,West,269,3.0,10.0,86,0.00,,,0.20,VWS V14.01,2013-02-28 02:32:00,
2013-02-27 20:37:00,31.4,27.7,29.91,WSW,251,4.0,10.0,86,0.00,,,0.20,VWS V14.01,2013-02-28 02:37:00,
2013-02-27 20:42:00,31.4,27.7,29.91,WNW,285,5.0,13.0,86,0.00,,,0.20,VWS V14.01,2013-02-28 02:42:00,
2013-02-27 20:47:00,31.4,27.7,29.91,West,263,4.0,13.0,86,0.00,,,0.20,VWS V14.01,2013-02-28 02:47:00,
2013-02-27 20:52:00,31.5,27.5,29.91,West,263,4.0,14.0,85,0.00,,,0.20,VWS V14.01,2013-02-28 02:52:00,
2013-02-27 20:57:00,31.5,27.5,29.92,NW,304,2.0,14.0,85,0.00,,,0.20,VWS V14.01,2013-02-28 02:57:00,
2013-02-27 21:00:00,31.5,27.5,29.92,WSW,246,5.0,14.0,85,0.00,,,0.20,VWS V14.01,2013-02-28 03:00:00,
2013-02-27 21:02:00,31.5,27.5,29.92,West,259,4.0,11.0,85,0.00,,,0.20,VWS V14.01,2013-02-28 03:02:00,
2013-02-27 21:07:00,31.5,27.5,29.92,West,265,3.0,11.0,85,0.00,,,0.20,VWS V14.01,2013-02-28 03:07:00,
2013-02-27 21:17:00,31.5,27.5,29.92,West,269,4.0,11.0,85,0.00,,,0.20,VWS V14.01,2013-02-28 03:17:00,
2013-02-27 21:22:00,31.5,27.5,29.92,West,272,8.0,14.0,85,0.00,,,0.20,VWS V14.01,2013-02-28 03:22:00,
2013-02-27 21:27:00,31.5,27.2,29.92,WNW,282,4.0,14.0,84,0.00,,,0.20,VWS V14.01,2013-02-28 03:27:00,
2013-02-27 21:30:00,31.5,27.2,29.92,West,277,2.0,14.0,84,0.00,,,0.20,VWS V14.01,2013-02-28 03:30:00,
2013-02-27 21:32:00,31.5,27.2,29.92,SW,229,4.0,6.0,84,0.00,,,0.20,VWS V14.01,2013-02-28 03:32:00,
2013-02-27 21:38:00,31.5,27.2,29.92,West,273,8.0,12.0,84,0.00,,,0.20,VWS V14.01,2013-02-28 03:38:00,
2013-02-27 21:43:00,31.5,27.2,29.92,West,267,3.0,12.0,84,0.00,,,0.20,VWS V14.01,2013-02-28 03:43:00,
2013-02-27 21:48:00,31.4,27.1,29.92,West,270,6.0,12.0,84,0.00,,,0.20,VWS V14.01,2013-02-28 03:48:00,
2013-02-27 21:53:00,31.4,27.1,29.92,West,275,7.0,14.0,84,0.00,,,0.20,VWS V14.01,2013-02-28 03:53:00,
2013-02-27 21:58:00,31.4,27.1,29.92,West,267,4.0,14.0,84,0.00,,,0.20,VWS V14.01,2013-02-28 03:58:00,
2013-02-27 22:00:00,31.4,27.1,29.92,WNW,299,9.0,14.0,84,0.00,,,0.20,VWS V14.01,2013-02-28 04:00:00,
2013-02-27 22:03:00,31.4,27.1,29.93,West,271,4.0,7.0,84,0.00,,,0.20,VWS V14.01,2013-02-28 04:03:00,
2013-02-27 22:08:00,31.4,27.1,29.93,West,269,3.0,7.0,84,0.00,,,0.20,VWS V14.01,2013-02-28 04:08:00,
2013-02-27 22:13:00,31.3,27.0,29.92,West,277,4.0,8.0,84,0.00,,,0.20,VWS V14.01,2013-02-28 04:13:00,
2013-02-27 22:18:00,31.3,27.0,29.93,WSW,257,2.0,11.0,84,0.00,,,0.20,VWS V14.01,2013-02-28 04:18:00,
2013-02-27 22:23:00,31.3,27.0,29.93,West,272,4.0,11.0,84,0.00,,,0.20,VWS V14.01,2013-02-28 04:23:00,
2013-02-27 22:28:00,31.3,27.0,29.93,West,281,5.0,11.0,84,0.00,,,0.20,VWS V14.01,2013-02-28 04:28:00,
2013-02-27 22:30:00,31.3,27.0,29.93,WSW,247,3.0,11.0,84,0.00,,,0.20,VWS V14.01,2013-02-28 04:30:00,
2013-02-27 22:33:00,31.3,27.0,29.93,WSW,254,3.0,6.0,84,0.00,,,0.20,VWS V14.01,2013-02-28 04:33:00,
2013-02-27 22:38:00,31.3,27.0,29.93,WSW,244,4.0,11.0,84,0.00,,,0.20,VWS V14.01,2013-02-28 04:38:00,
2013-02-27 22:43:00,31.3,27.0,29.93,West,267,6.0,11.0,84,0.00,,,0.20,VWS V14.01,2013-02-28 04:43:00,
2013-02-27 22:48:00,31.3,27.0,29.92,West,279,6.0,11.0,84,0.00,,,0.20,VWS V14.01,2013-02-28 04:48:00,
2013-02-27 22:53:00,31.3,27.0,29.93,WNW,289,4.0,11.0,84,0.00,,,0.20,VWS V14.01,2013-02-28 04:53:00,
2013-02-27 22:58:00,31.3,27.0,29.93,WNW,282,2.0,11.0,84,0.00,,,0.20,VWS V14.01,2013-02-28 04:58:00,
2013-02-27 23:00:00,31.3,27.0,29.93,WSW,250,2.0,11.0,84,0.00,,,0.20,VWS V14.01,2013-02-28 05:00:00,
2013-02-27 23:03:00,31.4,27.1,29.93,WNW,288,7.0,7.0,84,0.00,,,0.20,VWS V14.01,2013-02-28 05:03:00,
2013-02-27 23:08:00,31.3,27.0,29.93,West,259,3.0,8.0,84,0.00,,,0.20,VWS V14.01,2013-02-28 05:08:00,
2013-02-27 23:13:00,31.3,27.0,29.92,WSW,253,6.0,10.0,84,0.00,,,0.20,VWS V14.01,2013-02-28 05:13:00,
2013-02-27 23:18:00,31.3,27.0,29.93,WNW,295,6.0,10.0,84,0.00,,,0.20,VWS V14.01,2013-02-28 05:18:00,
2013-02-27 23:23:00,31.3,27.0,29.92,WSW,252,5.0,10.0,84,0.00,,,0.20,VWS V14.01,2013-02-28 05:23:00,
2013-02-27 23:28:00,31.3,27.0,29.93,West,268,3.0,10.0,84,0.00,,,0.20,VWS V14.01,2013-02-28 05:28:00,
2013-02-27 23:30:00,31.3,27.0,29.93,WSW,258,5.0,10.0,84,0.00,,,0.20,VWS V14.01,2013-02-28 05:30:00,
2013-02-27 23:33:00,31.3,27.0,29.92,WSW,248,4.0,7.0,84,0.00,,,0.20,VWS V14.01,2013-02-28 05:33:00,
2013-02-27 23:38:00,31.3,27.0,29.92,West,269,4.0,12.0,84,0.00,,,0.20,VWS V14.01,2013-02-28 05:38:00,
2013-02-27 23:43:00,31.3,27.0,29.93,WSW,244,3.0,12.0,84,0.00,,,0.20,VWS V14.01,2013-02-28 05:43:00,
2013-02-27 23:48:00,31.2,26.9,29.93,WSW,257,7.0,12.0,84,0.00,,,0.20,VWS V14.01,2013-02-28 05:48:00,
2013-02-27 23:53:00,31.2,27.2,29.93,WNW,296,4.0,12.0,85,0.00,,,0.20,VWS V14.01,2013-02-28 05:53:00,
2013-02-27 23:58:00,31.2,27.2,29.92,West,263,7.0,12.0,85,0.00,,,0.20,VWS V14.01,2013-02-28 05:58:00,